User: anonymous   Login
Location: Ahausen
(50.4985°N, 8.2722°E)
Time: 22:05:20
(UTC+00:00)
Language:

XW-2A - Orbit

View from above orbital plane
View from above orbital plane
View from above satellite
View from above satellite

Ground track
Ground track

The orbit data is extracted from the following two-line orbital elements,

1 40903U 15049E   22179.61699316  .00019296  00000-0  29959-3 0  9991
2 40903  97.1790 238.1679 0011219  83.6347  72.5150 15.53938242380993
Epoch (UTC): 28 June 2022 14:48:28
Eccentricity: 0.0011219
inclination: 97.1790°
perigee height: 397 km
apogee height: 413 km
right ascension of ascending node: 238.1679°
argument of perigee: 83.6347°
revolutions per day: 15.53938242
mean anomaly at epoch: 72.5150°
orbit number at epoch: 38099

The dashed part of the orbit path shows where the satellite is in the earth's shadow,  

DLR